Tracking 28790 objects as of 19-Apr-2024
HD Live streaming from Space Station
objects crossing your sky now

COSMOS 465

Track COSMOS 465 now!
10-day predictions
COSMOS 465 is classified as:


NORAD ID: 5683
Int'l Code: 1971-111A
Perigee: 972.0 km
Apogee: 1,010.9 km
Inclination: 74.0 °
Period: 104.8 minutes
Semi major axis: 7362 km
RCS: 3.9324 m2 (large)
Launch date: December 15, 1971
Source: Commonwealth of Independent States (former USSR) (CIS)
Launch site: PLESETSK MISSILE AND SPACE COMPLEX (PKMTR)
Your satellite tracking list
Your tracking list is empty




NASA's NSSDC Master Catalog

Two Line Element Set (TLE):
1 05683U 71111A   24109.70465213  .00000045  00000-0  71077-4 0  9992
2 05683  74.0282 180.1921 0026403 109.1270   9.9108 13.74272032624880
Source of the keplerian elements: AFSPC